x

8452944 - Conimicut Light, Ri (cptr1) Weather Station

12:18 - Wed 23rd Jul 2014 All times are EDT. -4 hours from GMT.

  • Wind
    8mph, 10mph gusts
  • Sea Temp 76°f
  • Air Temp 73°f
  • Sea Pressure 1016.6mb
  • 8452944 - Conimicut Light, Ri
  • 8452944 - Conimicut Light, Ri

More Historic Weather Station data

Upgrade to MSW Pro to gain access to the past 30 days of data for over 8000 Wavebouys and Weather Stations around the globe.

Join Pro

Comparision Forecast

View Surf forecast
   
mer. 07/23 12:18 8 10 mph 1016.6mb 76f 73f
12:12 9 11 mph 1016.7mb 76f 73f
12:06 9 10 mph 1016.7mb 76f 73f
12:00 9 11 mph 1016.7mb 76f 73f
mar. 07/22 11:54 10 13 mph 1016.8mb 76f 73f
11:48 9 13 mph 1016.8mb 76f 73f
11:42 9 13 mph 1016.8mb 76f 73f
11:36 9 11 mph 1016.9mb 76f 74f
11:30 8 10 mph 1017mb 76f 74f
11:24 8 10 mph 1017mb 76f 74f
11:18 9 13 mph 1017mb 76f 74f
11:12 8 9 mph 1017mb 76f 74f
11:06 8 10 mph 1017mb 76f 74f
11:00 9 13 mph 1017mb 76f 74f
10:54 10 14 mph 1016.9mb 76f 74f
10:48 10 13 mph 1017mb 76f 74f
10:42 11 14 mph 1016.9mb 76f 74f
10:36 11 14 mph 1017mb 76f 74f
10:30 11 14 mph 1017.1mb 76f 74f
10:24 11 15 mph 1017.2mb 76f 74f
10:18 13 15 mph 1017.3mb 76f 74f
10:12 13 15 mph 1017.3mb 76f 74f
10:06 13 16 mph 1017.3mb 76f 74f
10:00 13 16 mph 1017.2mb 76f 74f
9:54 13 15 mph 1017.3mb 76f 74f
9:48 13 18 mph 1017.4mb 76f 74f
9:42 14 16 mph 1017.4mb 76f 74f
9:36 15 18 mph 1017.4mb 76f 74f
9:30 14 18 mph 1017.4mb 76f 74f
9:24 16 20 mph 1017.3mb 76f 75f
9:18 17 20 mph 1017.4mb 76f 75f
9:12 16 20 mph 1017.5mb 76f 75f
9:06 17 21 mph 1017.4mb 76f 75f
9:00 18 22 mph 1017.5mb 76f 75f
8:54 18 22 mph 1017.5mb 76f 75f
8:48 17 21 mph 1017.5mb 75f 75f
8:42 18 21 mph 1017.4mb 75f 75f
8:36 21 23 mph 1017.4mb 75f 76f
8:30 20 22 mph 1017.3mb 75f 76f
8:24 17 21 mph 1017.1mb 75f 76f
8:18 17 21 mph 1017.2mb 75f 76f
8:12 18 20 mph 1017.2mb 75f 76f
8:06 16 17 mph 1017.2mb 75f 77f
8:00 15 16 mph 1017.2mb 75f 77f
7:54 15 18 mph 1017.4mb 75f 77f
7:48 15 17 mph 1017.3mb 75f 78f
7:42 14 17 mph 1017.2mb 75f 78f
7:36 15 16 mph 1017.3mb 75f 78f
7:30 13 16 mph 1017.3mb 76f 79f
7:24 15 21 mph 1017.3mb 76f 79f
7:18 17 21 mph 1017.2mb 76f 79f
7:12 15 16 mph 1017mb 76f 78f
7:06 15 22 mph 1017mb 76f 79f
7:00 20 23 mph 1017.3mb 76f 80f
6:54 17 18 mph 1017.1mb 76f 80f
6:48 17 20 mph 1017mb 76f 79f
6:42 16 17 mph 1017mb 76f 79f
6:36 15 20 mph 1017mb 76f 80f
6:30 16 20 mph 1017mb 76f 80f
6:24 15 18 mph 1017.1mb 76f 80f
6:18 15 17 mph 1017.1mb 76f 81f
6:12 15 18 mph 1017.2mb 76f 81f
6:06 16 18 mph 1017.2mb 76f 81f
6:00 15 17 mph 1017.2mb 76f 80f
5:54 14 22 mph 1017.3mb 76f 81f
5:48 17 21 mph 1017.3mb 76f 81f
5:42 15 20 mph 1017.3mb 76f 80f
5:36 15 20 mph 1017.3mb 76f 80f
5:30 18 22 mph 1017.3mb 76f 81f
5:24 18 21 mph 1017.3mb 76f 81f
5:18 20 22 mph 1017.2mb 76f 81f
5:12 18 22 mph 1017.3mb 76f 82f
5:06 17 21 mph 1017.4mb 76f 82f
5:00 16 22 mph 1017.4mb 76f 82f
4:54 18 20 mph 1017.3mb 76f 81f
4:48 17 20 mph 1017.3mb 76f 80f
4:42 17 21 mph 1017.3mb 76f 79f
4:36 21 22 mph 1017.2mb 76f 79f
4:30 22 23 mph 1017.3mb 76f 79f
4:24 21 23 mph 1017.3mb 76f 79f
4:18 22 23 mph 1017.3mb 76f 79f
4:12 22 24 mph 1017.3mb 75f 78f
4:06 23 25 mph 1017.3mb 75f 79f
4:00 25
mph
1017.4mb 75f 79f
3:54 22 23 mph 1017.3mb 74f 79f
3:48 18 21 mph 1017.4mb 74f 79f
3:42 18 23 mph 1017.4mb 74f 78f
3:36 18 20 mph 1017.6mb 74f 78f
3:30 17 18 mph 1017.7mb 74f 77f
3:24 17 20 mph 1017.7mb 74f 77f
3:18 17 18 mph 1017.8mb 74f 78f
3:12 17 18 mph 1017.9mb 74f 77f
3:06 15 18 mph 1018mb 74f 78f
3:00 17 18 mph 1018.2mb 75f 78f
2:54 14 16 mph 1018.3mb 75f 78f
2:48 16 17 mph 1018.3mb 75f 78f
2:42 16
mph
1018.4mb 75f 77f
2:36 15 16 mph 1018.4mb 76f 78f
2:30 16 17 mph 1018.4mb 76f 78f
2:18 15 16 mph 1018.4mb 76f 78f
2:12 15 17 mph 1018.4mb 76f 78f
2:06 17 20 mph 1018.5mb 76f 78f
2:00 18 20 mph 1018.4mb 76f 78f
1:54 16 17 mph 1018.6mb 76f 78f
1:48 15 16 mph 1018.7mb 76f 78f
1:42 16
mph
1018.8mb 76f 78f
1:36 14
mph
1018.8mb 76f 78f
1:30 14 15 mph 1018.9mb 76f 78f
1:24 15
mph
1018.9mb 76f 77f
1:18 15 16 mph 1018.9mb 76f 77f
1:12 15
mph
1018.9mb 76f 77f
1:06 14
mph
1019mb 76f 77f
1:00 13 14 mph 1019.2mb 76f 77f
12:54 13
mph
1019.3mb 76f 77f
12:48 13
mph
1019.4mb 76f 77f
12:42 13
mph
1019.4mb 75f 77f
12:36 11
mph
1019.5mb 75f 77f
12:30 11 13 mph 1019.5mb 75f 77f
12:24 11 13 mph 1019.5mb 75f 76f
12:18 11
mph
1019.6mb 75f 76f
12:12 11
mph
1019.6mb 75f 76f
12:06 11
mph
1019.6mb 75f 76f
12:00 10 11 mph 1019.5mb 75f 76f
11:54 10 11 mph 1019.7mb 75f 76f
11:48 11
mph
1019.7mb 75f 76f
11:42 10 11 mph 1019.8mb 75f 75f
11:36 10 11 mph 1019.8mb 75f 75f
11:30 10 11 mph 1019.9mb 75f 75f
11:24 10
mph
1020mb 75f 75f
11:18 9 10 mph 1020mb 75f 74f
11:12 9 11 mph 1019.9mb 75f 75f
11:06 10 11 mph 1019.8mb 75f 75f
11:00 10 11 mph 1019.7mb 75f 75f
10:54 10 11 mph 1019.7mb 75f 74f
10:48 11
mph
1019.7mb 75f 74f
10:42 11
mph
1019.8mb 75f 74f
10:36 10 11 mph 1019.8mb 75f 74f
10:30 10
mph
1019.9mb 75f 74f
10:24 9 11 mph 1020mb 75f 73f
10:18 9 10 mph 1019.9mb 75f 73f
10:12 9 10 mph 1019.9mb 75f 73f
10:06 9 10 mph 1020mb 75f 73f
10:00 9 10 mph 1020mb 75f 73f
9:54 9 10 mph 1019.9mb 75f 73f
9:48 9 10 mph 1019.9mb 75f 72f
9:42 8 9 mph 1020mb 75f 72f
9:36 8 9 mph 1020.1mb 75f 72f
9:30 8
mph
1020.1mb 75f 72f
9:24 8
mph
1020.2mb 75f 72f
9:18 8
mph
1020.3mb 75f 71f
9:12 7 8 mph 1020.4mb 75f 71f
9:06 8
mph
1020.4mb 75f 71f
9:00 8 9 mph 1020.5mb 75f 71f
8:54 8 9 mph 1020.6mb 75f 71f
8:48 8
mph
1020.7mb 75f 71f
8:42 7 8 mph 1020.7mb 75f 70f
8:36 7
mph
1020.8mb 75f 70f
8:30 5 6 mph 1020.8mb 74f 70f
8:24 5 6 mph 1020.9mb 74f 70f
8:18 5 6 mph 1020.9mb 74f 71f
8:12 5 6 mph 1021mb 74f 71f
8:06 5 7 mph 1021mb 74f 71f
8:00 5 7 mph 1021mb 74f 70f
7:54 5 7 mph 1021mb 74f 70f
7:48 5 6 mph 1021mb 74f 70f
7:42 5 6 mph 1020.9mb 74f 69f
7:36 5 6 mph 1020.9mb 74f 69f
7:30 3 6 mph 1020.9mb 74f 69f
7:24 5 7 mph 1020.9mb 74f 69f
7:18 5 6 mph 1020.9mb 74f 69f
7:12 5 6 mph 1020.9mb 74f 69f
7:06 6 7 mph 1020.9mb 74f 69f
7:00 3 5 mph 1020.9mb 74f 69f
6:54 3 5 mph 1020.8mb 74f 69f
6:48 3 5 mph 1020.8mb 74f 68f
6:42 3 5 mph 1020.8mb 74f 69f
6:36 5 6 mph 1020.9mb 74f 69f
6:30 2 5 mph 1020.9mb 74f 69f
6:24 3 6 mph 1020.9mb 74f 69f
6:18 5
mph
1020.9mb 74f 69f
6:12 3 5 mph 1020.8mb 73f 69f
6:06 3 5 mph 1020.9mb 73f 69f
6:00 5 6 mph 1020.9mb 73f 68f
5:54 5 6 mph 1021mb 73f 68f
5:48 5 6 mph 1020.9mb 73f 68f
5:42 3 5 mph 1020.9mb 73f 68f
5:36 5 6 mph 1020.9mb 73f 68f
5:30 3 5 mph 1020.9mb 73f 68f
5:24 3 6 mph 1020.9mb 73f 68f
5:18 3 5 mph 1020.9mb 73f 68f
5:12 5 6 mph 1020.8mb 73f 68f
5:06 5 6 mph 1020.8mb 73f 67f
5:00 6 7 mph 1020.8mb 73f 67f
4:54 5 7 mph 1020.8mb 73f 67f
4:48 6 7 mph 1020.8mb 73f 67f
4:42 6 8 mph 1020.7mb 73f 68f
4:36 7 8 mph 1020.7mb 73f 68f
4:30 6 7 mph 1020.6mb 73f 67f
4:24 6 7 mph 1020.6mb 73f 68f
4:18 5 6 mph 1020.7mb 73f 68f
4:12 5 7 mph 1020.7mb 73f 67f
4:06 5 6 mph 1020.7mb 73f 67f
4:00 5 6 mph 1020.8mb 73f 67f
3:54 3 5 mph 1020.7mb 73f 67f
3:48 3 5 mph 1020.8mb 73f 67f
3:42 3 6 mph 1020.7mb 73f 67f
3:36 6 9 mph 1020.8mb 73f 67f
3:30 8 9 mph 1020.8mb 73f 66f
3:24 8 10 mph 1020.7mb 73f 67f
3:18 6 7 mph 1020.7mb 74f 67f
3:12 6 7 mph 1020.7mb 74f 67f
3:06 5 6 mph 1020.7mb 74f 67f
3:00 5 6 mph 1020.7mb 74f 67f
2:54 5 7 mph 1020.7mb 74f 67f
2:48 3 5 mph 1020.7mb 74f 67f
2:42 3 5 mph 1020.7mb 74f 67f
2:36 3 5 mph 1020.8mb 74f 67f
2:30 5 6 mph 1020.7mb 74f 67f
2:24 3 6 mph 1020.7mb 74f 67f
2:18 3 6 mph 1020.7mb 74f 68f
2:12 3 6 mph 1020.8mb 74f 68f
2:06 5 6 mph 1020.8mb 74f 68f
2:00 5 7 mph 1020.8mb 74f 69f
1:54 6 8 mph 1020.8mb 75f 69f
1:48 6 7 mph 1020.8mb 75f 69f
1:42 6 7 mph 1020.9mb 75f 69f
1:36 6 8 mph 1020.9mb 75f 68f
1:30 7 8 mph 1020.9mb 75f 68f
1:24 8 10 mph 1021mb 75f 69f
1:18 8 9 mph 1021.1mb 75f 68f
1:12 7 9 mph 1021.1mb 75f 68f
1:06 7 9 mph 1021.1mb 75f 68f
1:00 7 10 mph 1021.1mb 75f 68f
12:54 9 10 mph 1021.1mb 75f 67f
12:48 8 9 mph 1021.1mb 75f 68f
12:42 7 8 mph 1021.1mb 75f 68f
12:36 7 8 mph 1021.2mb 75f 68f
12:30 7 9 mph 1021.2mb 75f 68f
12:24 7 8 mph 1021.2mb 76f 69f
12:18 6
mph
1021.2mb 76f 69f
12:12 5 7 mph 1021.2mb 76f 69f
12:06 6 7 mph 1021.3mb 76f 69f
12:00 6 7 mph 1021.3mb 76f 69f
lun. 07/21 11:54 6 7 mph 1021.4mb 76f 69f
11:48 6 7 mph 1021.4mb 76f 69f
11:42 6 7 mph 1021.4mb 76f 69f
11:36 6 8 mph 1021.4mb 76f 69f
11:30 6 8 mph 1021.5mb 76f 70f
11:24 7
mph
1021.5mb 76f 70f
11:18 6 7 mph 1021.5mb 76f 70f
11:12 6 7 mph 1021.4mb 76f 70f
11:06 6 7 mph 1021.5mb 76f 70f
11:00 7 8 mph 1021.6mb 76f 70f
10:54 7 8 mph 1021.5mb 76f 70f
10:48 7 8 mph 1021.5mb 76f 70f
10:42 7 8 mph 1021.5mb 77f 70f
10:36 8 9 mph 1021.5mb 77f 70f
10:30 7 9 mph 1021.5mb 77f 70f
10:24 7 9 mph 1021.6mb 77f 70f
10:18 8 9 mph 1021.6mb 77f 70f
10:12 9 10 mph 1021.6mb 77f 70f
10:06 7 9 mph 1021.6mb 77f 70f
10:00 8 9 mph 1021.6mb 77f 70f
9:54 8 9 mph 1021.6mb 77f 70f
9:48 8 10 mph 1021.6mb 77f 71f
9:42 9 11 mph 1021.6mb 77f 71f
9:36 10 11 mph 1021.6mb 77f 71f
9:30 10 11 mph 1021.6mb 77f 71f
9:24 9 11 mph 1021.6mb 77f 71f
9:18 9 13 mph 1021.6mb 77f 71f
9:12 11 14 mph 1021.5mb 77f 71f
9:06 11 14 mph 1021.4mb 77f 72f
9:00 11 14 mph 1021.3mb 77f 71f
8:54 11 13 mph 1021.3mb 77f 71f
8:48 11 14 mph 1021.2mb 77f 72f
8:42 14 15 mph 1021.2mb 77f 72f
8:36 13 14 mph 1021.1mb 77f 72f
8:30 13 14 mph 1021.1mb 77f 72f
8:24 14 15 mph 1021.1mb 76f 72f
8:18 14 16 mph 1021mb 76f 72f
8:12 14 15 mph 1021mb 76f 73f
8:06 14 17 mph 1021mb 76f 73f
8:00 15 17 mph 1020.9mb 76f 73f
7:54 16 17 mph 1020.9mb 76f 73f
7:48 14 16 mph 1020.8mb 76f 73f
7:42 15 17 mph 1020.7mb 76f 73f
7:36 15 16 mph 1020.6mb 76f 73f
7:30 14 15 mph 1020.7mb 76f 73f
7:24 14 15 mph 1020.7mb 76f 74f
7:18 14
mph
1020.6mb 75f 74f
7:12 13 15 mph 1020.6mb 75f 74f
7:06 11 15 mph 1020.6mb 75f 75f
7:00 9 11 mph 1020.7mb 75f 76f
6:54 6
mph
1020.7mb 75f 80f
6:48 5 7 mph 1020.7mb 75f 82f
6:42 7
mph
1020.6mb 75f 81f
6:36 6 7 mph 1020.6mb 75f 82f
6:30 6 8 mph 1020.6mb 75f 82f
6:24 6 8 mph 1020.6mb 75f 81f
6:18 8 9 mph 1020.5mb 75f 81f
6:12 7 9 mph 1020.5mb 75f 82f
6:06 6 8 mph 1020.4mb 75f 82f
6:00 6 8 mph 1020.4mb 74f 81f
5:54 7 9 mph 1020.4mb 74f 81f
5:48 8 10 mph 1020.3mb 74f 80f
5:42 7 9 mph 1020.2mb 74f 82f
5:36 8 10 mph 1020.2mb 74f 81f
5:30 7 9 mph 1020.2mb 74f 80f
5:24 7 8 mph 1020.2mb 74f 82f
5:18 8 9 mph 1020.2mb 74f 81f
5:12 7 9 mph 1020.3mb 74f 82f
5:06 8 9 mph 1020.3mb 74f 82f
5:00 9 10 mph 1020.3mb 74f 81f
4:54 5 9 mph 1020.3mb 74f 82f
4:48 9 10 mph 1020.3mb 74f 81f
4:42 7 8 mph 1020.3mb 74f 81f
4:36 7 9 mph 1020.4mb 74f 80f
4:30 5 7 mph 1020.5mb 74f 82f
4:24 3 7 mph 1020.5mb 74f 82f
4:18 9 11 mph 1020.5mb 73f 80f
4:12 5 8 mph 1020.6mb 74f 80f
4:06 5 6 mph 1020.6mb 74f 80f
4:00 5 7 mph 1020.6mb 74f 80f
3:54 6 10 mph 1020.7mb 74f 80f
3:48 8 10 mph 1020.7mb 74f 80f
3:42 7 11 mph 1020.7mb 74f 80f
3:36 6 8 mph 1020.7mb 73f 79f
3:30 9 14 mph 1020.7mb 73f 79f
3:24 6 8 mph 1020.7mb 73f 79f
3:18 5 7 mph 1020.8mb 73f 78f
3:12 5 10 mph 1020.8mb 73f 80f
3:06 6 11 mph 1020.8mb 73f 80f
3:00 3 8 mph 1020.9mb 73f 80f
2:54 5 10 mph 1021mb 73f 80f
2:48 5 6 mph 1021.1mb 73f 80f
2:42 3 8 mph 1021.1mb 73f 80f
2:36 7 11 mph 1021.1mb 73f 78f
2:30 5 11 mph 1021.1mb 73f 78f
2:24 8 9 mph 1021.1mb 73f 78f
2:18 8 10 mph 1021.1mb 74f 79f
2:12 10 13 mph 1021.1mb 74f 78f
2:06 6 9 mph 1021.2mb 74f 79f
2:00 9 11 mph 1021.3mb 74f 78f
1:54 9 13 mph 1021.2mb 74f 78f
1:48 6 11 mph 1021.3mb 74f 78f
1:42 10 13 mph 1021.2mb 75f 78f
1:36 9 11 mph 1021.2mb 75f 77f
1:30 5 9 mph 1021.3mb 75f 78f
1:24 8 10 mph 1021.4mb 75f 77f
1:18 6 8 mph 1021.5mb 75f 77f
1:12 2 5 mph 1021.4mb 75f 77f
1:06 1 3 mph 1021.4mb 75f 75f
1:00 2 7 mph 1021.5mb 75f 77f
12:54 6 9 mph 1021.4mb 75f 77f
12:48 6 9 mph 1021.4mb 75f 76f
12:42 8 9 mph 1021.5mb 75f 76f
12:36 7 11 mph 1021.6mb 75f 76f
12:30 6 11 mph 1021.7mb 75f 75f
12:24 10 13 mph 1021.6mb 75f 74f
12:18 13 16 mph 1021.7mb 75f 74f
12:12 10 14 mph 1021.7mb 74f 74f
12:06 9 14 mph 1021.8mb 74f 74f
12:00 11 14 mph 1021.9mb 74f 73f
11:54 8 15 mph 1021.9mb 74f 73f
11:48 9 13 mph 1022mb 74f 73f
11:42 10 13 mph 1022mb 74f 73f
11:36 9 13 mph 1022mb 74f 72f
11:30 8 14 mph 1022mb 74f 72f
11:24 7 14 mph 1022.1mb 74f 72f
11:18 9 14 mph 1022.1mb 74f 71f
11:12 11 14 mph 1022.1mb 74f 71f
11:06 9 14 mph 1022.2mb 74f 71f
11:00 9 13 mph 1022.2mb 74f 71f
10:54 9 11 mph 1022.2mb 74f 70f
10:48 9 15 mph 1022.1mb 74f 70f
10:42 11 14 mph 1022mb 74f 70f
10:36 9 13 mph 1022.1mb 74f 70f
10:30 9 13 mph 1022.1mb 74f 69f
10:24 10 11 mph 1022.1mb 74f 69f
10:18 10 14 mph 1022.2mb 74f 69f
10:12 11 13 mph 1022.2mb 74f 69f
10:06 7 10 mph 1022.2mb 74f 69f
10:00 7 10 mph 1022.2mb 74f 68f
9:54 8 10 mph 1022.2mb 74f 68f
9:48 9 10 mph 1022.2mb 74f 68f
9:42 9 10 mph 1022.3mb 74f 67f
9:36 8 11 mph 1022.3mb 74f 67f
9:30 9 11 mph 1022.3mb 74f 67f
9:24 7 10 mph 1022.4mb 74f 67f
9:18 7 10 mph 1022.4mb 74f 67f
9:12 9 13 mph 1022.4mb 74f 66f
9:06 9 11 mph 1022.4mb 74f 66f
9:00 11 13 mph 1022.3mb 74f 66f
8:54 11 14 mph 1022.3mb 74f 66f
8:48 11 14 mph 1022.3mb 74f 65f
8:42 14 15 mph 1022.3mb 74f 65f
8:36 13 15 mph 1022.3mb 74f 65f
8:30 13 15 mph 1022.2mb 74f 65f
8:24 13 15 mph 1022.1mb 74f 65f
8:18 13 15 mph 1022mb 74f 65f
8:12 13 14 mph 1022mb 74f 65f
8:06 13 14 mph 1022mb 74f 64f
8:00 10 11 mph 1022mb 74f 64f
7:54 11 14 mph 1021.9mb 74f 64f
7:48 10 13 mph 1021.9mb 74f 64f
7:42 11 13 mph 1021.8mb 74f 64f
7:36 11 14 mph 1021.7mb 74f 64f
7:30 13 15 mph 1021.6mb 74f 64f
7:24 11 15 mph 1021.6mb 74f 64f
7:18 13 14 mph 1021.6mb 74f 64f
7:12 13 15 mph 1021.5mb 74f 64f
7:06 14 15 mph 1021.5mb 74f 64f
7:00 13 15 mph 1021.4mb 74f 64f
6:54 11 14 mph 1021.3mb 74f 64f
6:48 11 14 mph 1021.3mb 74f 64f
6:42 13 14 mph 1021.2mb 74f 64f
6:36 11 14 mph 1021.2mb 74f 64f
6:30 10 13 mph 1021.2mb 74f 64f
6:24 10 11 mph 1021.2mb 74f 64f
6:18 10 13 mph 1021.2mb 74f 64f
6:12 10 11 mph 1021.1mb 74f 64f
6:06 10 11 mph 1021.1mb 74f 64f
6:00 10 13 mph 1021.1mb 74f 64f
5:54 8 10 mph 1021mb 74f 64f
5:48 9 11 mph 1021mb 74f 64f
5:42 8 10 mph 1020.9mb 74f 64f
5:36 9 11 mph 1020.9mb 74f 64f
5:30 9 11 mph 1020.9mb 74f 64f
5:24 9 10 mph 1020.9mb 74f 64f
5:18 8 10 mph 1020.9mb 74f 64f
5:12 8 11 mph 1020.9mb 74f 64f
5:06 9 13 mph 1020.9mb 74f 64f
5:00 9 14 mph 1020.7mb 73f 64f
4:54 9 11 mph 1020.8mb 73f 64f
4:48 8 11 mph 1020.7mb 73f 64f
4:42 9 11 mph 1020.8mb 73f 64f
4:36 9 11 mph 1020.7mb 73f 64f
4:30 8 11 mph 1020.6mb 73f 64f
4:24 9 13 mph 1020.5mb 73f 64f
4:18 10 11 mph 1020.5mb 73f 64f
4:12 9 10 mph 1020.5mb 73f 64f
4:06 9 11 mph 1020.5mb 73f 64f
4:00 9 10 mph 1020.5mb 73f 64f
3:54 8 10 mph 1020.5mb 73f 64f
3:48 8 10 mph 1020.4mb 73f 64f
3:42 8 10 mph 1020.4mb 73f 64f
3:36 9 10 mph 1020.3mb 73f 64f
3:30 8 10 mph 1020.2mb 73f 64f
3:24 8 10 mph 1020.3mb 73f 64f
3:18 8 11 mph 1020.3mb 73f 64f
3:12 8 10 mph 1020.3mb 73f 64f
3:06 9 10 mph 1020.3mb 73f 63f
3:00 8 9 mph 1020.3mb 73f 63f
2:54 9 10 mph 1020.3mb 73f 63f
2:48 8 10 mph 1020.4mb 73f 64f
2:42 9 10 mph 1020.4mb 73f 64f
2:36 10 14 mph 1020.4mb 74f 63f
2:30 9 11 mph 1020.4mb 74f 64f
2:24 9 10 mph 1020.4mb 74f 64f
2:18 8 10 mph 1020.4mb 74f 64f
2:12 9 10 mph 1020.5mb 74f 63f
2:06 9 11 mph 1020.5mb 74f 64f
2:00 9 10 mph 1020.6mb 75f 64f
1:54 7 8 mph 1020.6mb 75f 64f
1:48 7 9 mph 1020.6mb 75f 64f
1:42 7 9 mph 1020.7mb 75f 64f
1:36 7 9 mph 1020.7mb 75f 64f
1:30 6 7 mph 1020.7mb 75f 64f
1:24 6 7 mph 1020.7mb 75f 64f
1:18 5 6 mph 1020.7mb 75f 64f
1:12 6 8 mph 1020.7mb 75f 64f
1:06 6 8 mph 1020.8mb 75f 64f
1:00 6 7 mph 1020.8mb 75f 64f
12:54 6 8 mph 1020.8mb 75f 64f
12:48 6 8 mph 1020.8mb 75f 64f
12:42 6 8 mph 1020.8mb 75f 64f
12:36 6 8 mph 1020.8mb 75f 64f
12:30 6 8 mph 1020.7mb 75f 64f
12:24 6 9 mph 1020.7mb 75f 64f
12:18 7 9 mph 1020.7mb 75f 63f
12:12 7 9 mph 1020.8mb 75f 64f
12:06 8 9 mph 1020.7mb 76f 64f
12:00 8 10 mph 1020.8mb 76f 64f
dim. 07/20 11:54 8 10 mph 1020.8mb 76f 64f
11:48 9 11 mph 1020.9mb 76f 63f
11:42 9 10 mph 1020.9mb 76f 63f
11:36 8 11 mph 1021mb 76f 63f
11:30 8 10 mph 1021.1mb 76f 63f
11:24 7 9 mph 1021.2mb 76f 64f
11:18 7 8 mph 1021.2mb 76f 64f
11:12 6 7 mph 1021.2mb 76f 64f
11:06 5 8 mph 1021.2mb 76f 64f
11:00 6 8 mph 1021.3mb 76f 64f
10:54 6 9 mph 1021.3mb 76f 64f
10:48 6 7 mph 1021.4mb 76f 64f
10:42 6 8 mph 1021.4mb 76f 64f
10:36 6 10 mph 1021.4mb 76f 64f
10:30 8 14 mph 1021.3mb 76f 64f
10:24 11 14 mph 1021.3mb 76f 64f
10:18 14 16 mph 1021.2mb 76f 63f
10:12 14 16 mph 1021.1mb 76f 63f
10:06 15 17 mph 1021.1mb 76f 64f
10:00 16 18 mph 1021.1mb 76f 64f
9:54 15 20 mph 1021.1mb 76f 64f
9:48 11 13 mph 1021.2mb 76f 65f
9:42 10 14 mph 1021.2mb 76f 65f
9:36 13 15 mph 1021mb 76f 65f
9:30 10 11 mph 1021mb 76f 66f
9:24 10 14 mph 1021.1mb 76f 66f
9:18 13 17 mph 1021mb 76f 66f
9:12 13 14 mph 1020.9mb 76f 67f
9:06 13 15 mph 1020.8mb 76f 69f
9:00 13 16 mph 1020.8mb 76f 69f
8:54 13 17 mph 1020.7mb 76f 69f
8:48 14 16 mph 1020.6mb 76f 69f
8:42 14 15 mph 1020.6mb 76f 69f
8:36 15 17 mph 1020.5mb 76f 70f
8:30 15 17 mph 1020.5mb 76f 70f
8:24 11 14 mph 1020.4mb 76f 70f
8:18 13 16 mph 1020.4mb 76f 70f
8:12 14 16 mph 1020.3mb 76f 71f
8:06 11 14 mph 1020.3mb 76f 71f
8:00 11 13 mph 1020.2mb 76f 71f
7:54 14 15 mph 1020.2mb 76f 71f
7:48 15 18 mph 1020.2mb 76f 71f
7:42 15 17 mph 1020.1mb 76f 71f
7:36 14 18 mph 1020.1mb 76f 71f
7:30 10 13 mph 1020.2mb 76f 71f
7:24 11 14 mph 1020.1mb 76f 71f
7:18 10 14 mph 1020.1mb 76f 71f
7:12 13 15 mph 1020.1mb 76f 71f
7:06 13 16 mph 1020.1mb 76f 72f
7:00 13 15 mph 1020mb 76f 72f
6:54 14 16 mph 1020mb 76f 72f
6:48 11 14 mph 1019.9mb 76f 72f
6:42 13 15 mph 1019.9mb 76f 72f
6:36 11 16 mph 1019.9mb 76f 73f
6:30 14 16 mph 1019.9mb 76f 73f
6:24 13 17 mph 1019.9mb 76f 73f
6:18 13 16 mph 1019.8mb 76f 73f
6:12 14 15 mph 1019.8mb 76f 73f
6:06 14 16 mph 1019.8mb 76f 73f
6:00 13 15 mph 1019.8mb 76f 73f
5:54 13 17 mph 1019.8mb 76f 73f
5:48 14 17 mph 1019.7mb 76f 73f
5:42 13 16 mph 1019.8mb 76f 73f
5:36 14 16 mph 1019.7mb 76f 74f
5:30 11 14 mph 1019.8mb 76f 74f
5:24 10 13 mph 1019.9mb 76f 74f
5:18 10 11 mph 1019.9mb 76f 74f
5:12 10 14 mph 1020mb 75f 74f
5:06 10 11 mph 1020mb 75f 74f
5:00 11 14 mph 1019.9mb 75f 74f
4:54 11 14 mph 1019.9mb 75f 74f
4:48 13 15 mph 1019.9mb 76f 74f
4:42 11 14 mph 1019.9mb 75f 74f
4:36 10 14 mph 1020mb 75f 74f
4:30 11 14 mph 1020mb 75f 74f
4:24 13 15 mph 1020mb 75f 74f
4:18 10 13 mph 1020.1mb 75f 75f
4:12 10 15 mph 1020.2mb 75f 75f
4:06 11 14 mph 1020.2mb 75f 75f
4:00 13 14 mph 1020.2mb 74f 75f
3:54 13 14 mph 1020.3mb 74f 74f
3:48 10 13 mph 1020.2mb 74f 74f
3:42 10 14 mph 1020.3mb 74f 74f
3:36 13 14 mph 1020.3mb 74f 74f
3:30 10 14 mph 1020.4mb 74f 74f
3:24 11 14 mph 1020.5mb 74f 74f
3:18 13 14 mph 1020.5mb 74f 74f
3:12 13 15 mph 1020.5mb 74f 74f
3:06 13 15 mph 1020.5mb 74f 74f
3:00 11 14 mph 1020.5mb 74f 74f
2:54 9 10 mph 1020.6mb 74f 74f
2:48 10 11 mph 1020.6mb 74f 74f
2:42 11 13 mph 1020.6mb 74f 74f
2:36 7 10 mph 1020.6mb 74f 75f
2:30 9 10 mph 1020.6mb 74f 74f
2:24 7 10 mph 1020.7mb 74f 75f
2:18 6 9 mph 1020.6mb 74f 75f
2:12 7 10 mph 1020.6mb 74f 75f
2:06 6 10 mph 1020.6mb 74f 75f
2:00 8 10 mph 1020.7mb 74f 75f
1:54 8 10 mph 1020.8mb 74f 75f
1:48 8 10 mph 1020.8mb 74f 74f
1:42 7 9 mph 1020.9mb 74f 75f
1:36 5 7 mph 1020.9mb 74f 75f
1:30 6 7 mph 1020.9mb 74f 75f
1:24 8 10 mph 1021mb 74f 74f
1:18 9 11 mph 1021.1mb 74f 74f
1:12 6 9 mph 1021.1mb 74f 74f
1:06 9 11 mph 1021.1mb 74f 74f
1:00 7 10 mph 1021.2mb 74f 74f
12:54 7 9 mph 1021.3mb 74f 74f
12:48 7 10 mph 1021.3mb 75f 73f
12:42 5 8 mph 1021.4mb 75f 74f
12:36 7 10 mph 1021.4mb 75f 74f
12:30 6 9 mph 1021.4mb 75f 73f
12:24 8 10 mph 1021.5mb 75f 73f
12:18 6 10 mph 1021.6mb 75f 73f
12:12 9 10 mph 1021.5mb 75f 73f
12:06 7 10 mph 1021.6mb 75f 73f
12:00 8 11 mph 1021.6mb 75f 72f
11:54 9 11 mph 1021.6mb 75f 73f
11:48 9 11 mph 1021.7mb 75f 73f
11:42 9 10 mph 1021.8mb 75f 72f
11:36 6 9 mph 1021.8mb 75f 72f
11:30 8 10 mph 1021.8mb 75f 72f
11:24 7 9 mph 1021.9mb 75f 72f
11:18 7 8 mph 1022mb 75f 72f
11:12 6 8 mph 1021.9mb 75f 72f
11:06 6 8 mph 1022mb 75f 72f
11:00 7 9 mph 1022mb 75f 71f
10:54 9 10 mph 1022.1mb 75f 71f
10:48 7 10 mph 1022.1mb 75f 71f
10:42 5 6 mph 1022.2mb 75f 71f
10:36 5 7 mph 1022.3mb 75f 71f
10:30 7 8 mph 1022.2mb 75f 71f
10:24 5 6 mph 1022.3mb 75f 71f
10:18 5 7 mph 1022.4mb 75f 71f
10:12 5 7 mph 1022.5mb 75f 71f
10:06 6 7 mph 1022.4mb 75f 70f
10:00 7 8 mph 1022.4mb 75f 70f
9:54 6 9 mph 1022.5mb 75f 69f
9:48 5 6 mph 1022.6mb 75f 69f
9:42 3 6 mph 1022.6mb 75f 69f
9:36 6 7 mph 1022.6mb 75f 68f
9:30 6 8 mph 1022.6mb 75f 68f
9:24 6 8 mph 1022.5mb 75f 68f
9:18 6 9 mph 1022.5mb 75f 67f
9:12 6 8 mph 1022.4mb 75f 67f
9:06 6 8 mph 1022.4mb 75f 67f
9:00 7 8 mph 1022.3mb 75f 67f
8:54 6 8 mph 1022.3mb 75f 67f
8:48 6 7 mph 1022.3mb 75f 67f
8:42 6 7 mph 1022.3mb 75f 67f
8:36 7 9 mph 1022.3mb 75f 66f
8:30 7 9 mph 1022.2mb 75f 66f
8:24 8 10 mph 1022.3mb 75f 66f
8:18 8 9 mph 1022.2mb 75f 66f
8:12 7 8 mph 1022.2mb 75f 66f
8:06 6 7 mph 1022.2mb 75f 66f
8:00 6 7 mph 1022.1mb 75f 66f
7:54 6 8 mph 1022mb 75f 66f
7:48 7 8 mph 1022mb 75f 66f
7:42 7 8 mph 1021.9mb 75f 66f
7:36 6 8 mph 1021.9mb 75f 66f
7:30 6 8 mph 1022mb 75f 66f
7:24 7 8 mph 1022mb 75f 66f
7:18 6 8 mph 1022mb 75f 66f
7:12 6 8 mph 1021.9mb 75f 66f
7:06 7 9 mph 1021.8mb 75f 66f
7:00 7 10 mph 1021.8mb 75f 66f
6:54 9 10 mph 1021.6mb 75f 66f
6:48 9 11 mph 1021.6mb 75f 65f
6:42 10
mph
1021.6mb 75f 66f
6:36 8 10 mph 1021.6mb 75f 65f
6:30 7 8 mph 1021.7mb 75f 65f
6:24 7 9 mph 1021.6mb 75f 65f
6:18 7 9 mph 1021.5mb 75f 65f
6:12 7 8 mph 1021.4mb 75f 65f
6:06 7 9 mph 1021.3mb 75f 65f
6:00 8 10 mph 1021.2mb 75f 65f
5:54 9 10 mph 1021.1mb 75f 65f
5:48 9 10 mph 1021mb 75f 65f
5:42 8 9 mph 1021.1mb 75f 65f
5:36 8 10 mph 1021.1mb 75f 65f
5:30 8 9 mph 1021.1mb 75f 65f
5:24 8 9 mph 1021.1mb 75f 66f
5:18 7 9 mph 1021.1mb 75f 66f
5:12 6 7 mph 1021.1mb 75f 66f
5:06 7 8 mph 1021.1mb 75f 66f
5:00 7 8 mph 1021mb 75f 66f
4:54 6 7 mph 1021mb 75f 66f
4:48 6 8 mph 1021mb 75f 66f
4:42 6 8 mph 1021mb 75f 66f
4:36 6 7 mph 1021.1mb 75f 67f
4:30 7 8 mph 1021.1mb 75f 67f
4:24 7
mph
1021.2mb 75f 67f
4:18 7 8 mph 1021.2mb 75f 67f
4:12 6 7 mph 1021.2mb 75f 67f
4:06 6 8 mph 1021.2mb 75f 67f
4:00 6 7 mph 1021.3mb 75f 67f
3:54 6 7 mph 1021.2mb 75f 67f
3:48 6 7 mph 1021.2mb 75f 67f
3:42 5 6 mph 1021.2mb 75f 67f
3:36 5 7 mph 1021.1mb 74f 67f
3:30 6 7 mph 1021.2mb 74f 67f
3:24 6 7 mph 1021.2mb 74f 67f
3:18 6
mph
1021.3mb 74f 67f
3:12 5 6 mph 1021.3mb 74f 68f
3:06 5 6 mph 1021.5mb 74f 68f
3:00 5 6 mph 1021.4mb 74f 68f
2:54 5 6 mph 1021.6mb 74f 68f
2:48 5 6 mph 1021.7mb 74f 68f
2:42 3 5 mph 1021.7mb 74f 68f
2:36 3 5 mph 1021.7mb 74f 68f
2:30 3 5 mph 1021.8mb 74f 68f
2:24 3 6 mph 1021.9mb 74f 68f
2:18 6 7 mph 1021.9mb 74f 68f
2:12 6 7 mph 1022mb 74f 68f
2:06 5 6 mph 1022mb 74f 68f
2:00 6
mph
1022.1mb 74f 68f
1:54 6 7 mph 1022.1mb 74f 68f
1:48 6 7 mph 1022.2mb 74f 69f
1:42 6 7 mph 1022.2mb 75f 69f
1:36 5 6 mph 1022.3mb 75f 69f
1:30 5 6 mph 1022.4mb 75f 69f
1:24 3 8 mph 1022.4mb 75f 69f
1:18 6 10 mph 1022.5mb 75f 69f
1:12 9 10 mph 1022.5mb 75f 69f
1:06 9 11 mph 1022.6mb 75f 70f
1:00 10 11 mph 1022.7mb 75f 69f
12:54 9 13 mph 1022.8mb 76f 70f
12:48 8 10 mph 1022.7mb 76f 70f
12:42 9 10 mph 1022.7mb 76f 70f
12:36 10 11 mph 1022.7mb 76f 70f
12:30 10
mph
1022.8mb 76f 70f
12:24 7 8 mph 1022.8mb 76f 70f
12:18 7 8 mph 1022.9mb 76f 70f
12:12 6 7 mph 1023mb 76f 70f
12:06 6 8 mph 1023mb 76f 70f
12:00 7 8 mph 1023.1mb 76f 70f
sam. 07/19 11:54 6 7 mph 1023.1mb 76f 70f
11:48 6 7 mph 1023.2mb 76f 70f
11:42 6 7 mph 1023.1mb 76f 70f
11:36 7 8 mph 1023.1mb 76f 70f
11:30 7 8 mph 1023.1mb 76f 70f
11:24 7 8 mph 1023mb 76f 70f
11:18 8
mph
1022.9mb 76f 70f
11:12 7 8 mph 1022.8mb 76f 70f
11:06 6 7 mph 1022.9mb 76f 70f
11:00 7
mph
1022.9mb 76f 70f
10:54 6 7 mph 1022.8mb 76f 71f
10:48 6
mph
1022.9mb 76f 70f
10:42 6 7 mph 1022.9mb 76f 70f
10:36 6
mph
1022.9mb 76f 70f
10:30 6 7 mph 1022.9mb 76f 70f
10:24 6 7 mph 1022.8mb 76f 70f
10:18 6
mph
1022.9mb 76f 71f
10:12 6
mph
1022.9mb 76f 71f
10:06 5 6 mph 1022.9mb 76f 71f
10:00 5
mph
1022.9mb 76f 71f
9:54 2 3 mph 1022.9mb 76f 71f
9:48 1 2 mph 1023mb 76f 71f
9:42 1 3 mph 1023.1mb 76f 71f
9:36 2 3 mph 1023.1mb 76f 70f
9:30 2 3 mph 1023.1mb 76f 70f
9:24 3 5 mph 1023.1mb 76f 70f
9:18 3 5 mph 1023.1mb 76f 70f
9:12 3 5 mph 1023.1mb 76f 71f
9:06 3 5 mph 1023.1mb 76f 71f
9:00 5 6 mph 1023.2mb 76f 70f
8:54 6
mph
1023.2mb 76f 70f
8:48 6
mph
1023.1mb 76f 71f
8:42 6 7 mph 1023.1mb 76f 70f
8:36 3 5 mph 1023mb 76f 71f
8:30 5
mph
1023mb 76f 71f
8:24 3 5 mph 1023mb 76f 71f
8:18 3
mph
1023mb 76f 71f
8:12  -  3 mph 1023mb 76f 71f
8:06 3 6 mph 1023mb 76f 71f
8:00 5 7 mph 1023mb 76f 71f
7:54 6 7 mph 1022.9mb 76f 71f
7:48 6 8 mph 1023mb 76f 71f
7:42 7 8 mph 1022.9mb 76f 71f
7:36 7 8 mph 1023mb 76f 71f
7:30 6 7 mph 1023.1mb 76f 71f
7:24 6 8 mph 1023.3mb 76f 71f
7:18 8
mph
1023.3mb 76f 71f
7:12 7
mph
1023.3mb 76f 71f
7:06 7 9 mph 1023.4mb 76f 71f
7:00 8 10 mph 1023.5mb 76f 71f
6:54 8 9 mph 1023.5mb 76f 71f
6:48 6 7 mph 1023.4mb 76f 71f
6:42 6 8 mph 1023.3mb 76f 71f
6:36 9 11 mph 1023.3mb 76f 71f
6:30 13 15 mph 1023.4mb 76f 71f
6:24 11 14 mph 1023.4mb 76f 71f
6:18 9 11 mph 1023.4mb 76f 71f
6:12 10 11 mph 1023.5mb 76f 71f
6:06 10 11 mph 1023.4mb 76f 72f
6:00 11 13 mph 1023.6mb 76f 72f
5:54 9 10 mph 1023.6mb 76f 72f
5:48 6 9 mph 1023.6mb 76f 72f
5:42 8 11 mph 1023.6mb 76f 72f
5:36 10 11 mph 1023.5mb 76f 72f
5:30 10 13 mph 1023.6mb 76f 72f
5:24 10 13 mph 1023.7mb 76f 72f
5:18 8 10 mph 1023.6mb 76f 72f
5:12 10 11 mph 1023.6mb 76f 72f
5:06 9 10 mph 1023.7mb 76f 72f
5:00 10 14 mph 1023.8mb 76f 72f
4:54 11 13 mph 1023.9mb 76f 73f
4:48 9 11 mph 1023.7mb 76f 73f
4:42 9 11 mph 1023.6mb 76f 73f
4:36 10 14 mph 1023.5mb 76f 72f
4:30 11 13 mph 1023.6mb 76f 73f
4:24 10 13 mph 1023.4mb 76f 73f
4:18 10 13 mph 1023.5mb 76f 73f
4:12 9 10 mph 1023.4mb 76f 73f
4:06 9 10 mph 1023.2mb 76f 73f
4:00 10 14 mph 1023.4mb 76f 73f
3:54 11 14 mph 1023.4mb 76f 73f
3:48 14
mph
1023.5mb 75f 73f
3:42 13 16 mph 1023.6mb 75f 73f
3:36 14 16 mph 1023.7mb 75f 73f
3:30 13 16 mph 1023.7mb 75f 73f
3:24 11 13 mph 1023.7mb 75f 74f
3:18 10 11 mph 1023.6mb 75f 74f
3:12 10 13 mph 1023.5mb 75f 74f
3:06 10 15 mph 1023.4mb 75f 75f
3:00 10 15 mph 1023.1mb 75f 74f
2:54 14 16 mph 1023.2mb 75f 75f
2:48 15 16 mph 1022.9mb 75f 75f
2:42 11 14 mph 1023.1mb 75f 74f
2:36 14 16 mph 1023.3mb 75f 74f
2:30 8 10 mph 1023.4mb 75f 74f
2:24 8 10 mph 1023.4mb 75f 73f
2:18 9 11 mph 1023.5mb 75f 73f
2:12 10 13 mph 1023.5mb 75f 73f
2:06 11 14 mph 1023.6mb 75f 73f
2:00 11 14 mph 1023.5mb 75f 74f
1:54 7 13 mph 1023.7mb 75f 73f
1:48 13 16 mph 1023.8mb 75f 73f
1:42 16 17 mph 1023.9mb 75f 73f
1:36 11 14 mph 1024.1mb 75f 74f
1:30 11 14 mph 1024.2mb 75f 74f
1:24 10 14 mph 1024.2mb 75f 74f
1:18 10 13 mph 1024.3mb 75f 74f
1:12 11 14 mph 1024.2mb 74f 74f
1:06 13 14 mph 1024.3mb 74f 74f
1:00 11 13 mph 1024.3mb 74f 74f
12:54 10 11 mph 1024.3mb 74f 74f
12:48 8 9 mph 1024.4mb 74f 74f
12:42 3 7 mph 1024.5mb 74f 75f
12:36 6 7 mph 1024.5mb 74f 74f
12:24 6 7 mph 1024.5mb 74f 74f
12:18 6
mph
1024.5mb 74f 74f
12:12 6 8 mph 1024.5mb 74f 74f
12:06 8 9 mph 1024.5mb 74f 74f
12:00 9 11 mph 1024.4mb 74f 74f
11:54 2 5 mph 1024.5mb 74f 74f
11:48  -  2 mph 1024.4mb 74f 75f
11:42 2 3 mph 1024.3mb 74f 76f
11:36  -  2 mph 1024.3mb 75f 75f
11:30  -  1 mph 1024.4mb 75f 74f
11:24  -  1 mph 1024.4mb 75f 74f
11:18 1 2 mph 1024.5mb 75f 74f
11:12  -  1 mph 1024.5mb 75f 74f
11:06  -  1 mph 1024.5mb 75f 74f
11:00  -  1 mph 1024.5mb 76f 74f
10:54  -  mph 1024.5mb 76f 74f
10:48  -  1 mph 1024.5mb 76f 74f
10:42 1 2 mph 1024.5mb 76f 75f
10:36 1 2 mph 1024.6mb 76f 75f
10:30  -  2 mph 1024.6mb 75f 75f
10:24 1 2 mph 1024.6mb 75f 74f
10:18 2 3 mph 1024.6mb 75f 74f
10:12  -  1 mph 1024.6mb 75f 74f
10:06  -  mph 1024.7mb 75f 73f
10:00  -  mph 1024.8mb 75f 72f
9:54  -  mph 1024.9mb 75f 72f
9:48  -  mph 1024.8mb 75f 71f
9:42  -  1 mph 1024.9mb 75f 71f
9:36  -  1 mph 1024.8mb 75f 71f
9:30 1 2 mph 1024.7mb 75f 71f
9:24 1 2 mph 1024.7mb 75f 71f
9:18 1 2 mph 1024.6mb 75f 71f
9:12 2
mph
1024.5mb 75f 70f
9:06 1 3 mph 1024.6mb 74f 69f
9:00 2 3 mph 1024.6mb 74f 70f
8:54 3
mph
1024.6mb 74f 70f
8:48 3 5 mph 1024.6mb 74f 70f
8:42 2 3 mph 1024.6mb 74f 69f
8:36 3
mph
1024.7mb 74f 69f
8:30 2 3 mph 1024.8mb 75f 69f
8:24 2 3 mph 1024.7mb 75f 69f
8:18 2 3 mph 1024.7mb 75f 68f
8:12 2 3 mph 1024.5mb 75f 69f
8:06 2 3 mph 1024.5mb 75f 68f
8:00 2 3 mph 1024.4mb 75f 68f
7:54 2 3 mph 1024.4mb 75f 68f
7:48 2 3 mph 1024.3mb 75f 68f
7:42 2 3 mph 1024.4mb 75f 68f
7:36 3 5 mph 1024.3mb 75f 68f
7:30 3 5 mph 1024.3mb 75f 68f
7:24 3 5 mph 1024.2mb 75f 68f
7:18 5 6 mph 1024.1mb 75f 68f
7:12 5 6 mph 1024.1mb 75f 67f
7:06 5
mph
1024.2mb 75f 67f
7:00 3 5 mph 1024.1mb 75f 67f
6:54 3 6 mph 1024.2mb 75f 67f
6:48 5 6 mph 1024.2mb 75f 67f
6:42 3 5 mph 1024.2mb 75f 67f
6:36 5
mph
1024.1mb 75f 67f
6:30 3 5 mph 1024mb 75f 67f
6:24 2 3 mph 1023.9mb 75f 67f
6:18 2 6 mph 1023.9mb 75f 67f
6:12 5 6 mph 1023.8mb 75f 67f
6:06 6 7 mph 1023.9mb 75f 67f
6:00 6 7 mph 1023.9mb 75f 67f
5:54 6
mph
1024mb 75f 67f
5:48 3 5 mph 1024mb 75f 66f
5:42 5 6 mph 1024mb 75f 66f
5:36 5 6 mph 1024mb 75f 66f
5:30 5 6 mph 1024.1mb 75f 66f
5:24 5 6 mph 1024.1mb 75f 66f
5:18 6
mph
1024.1mb 75f 66f
5:12 5 6 mph 1024.1mb 75f 66f